SL-19 DEB, 23480

Orbit data source: Space-Track

SL-19 DEB, 23480 is space debris in LEO originally from a launch on Mon, 26 Dec 1994 UTC launched from the Tyuratam Missile And Space Complex (TTMTR). Debris objects in space refer to the collection of defunct objects orbiting the Earth. Examples of debris include non-operational satellites, rocket bodies, and fragments generated from explosions, collisions, or faulty payload assembly.

Loading next visibility...
Identifier
23480, 1994-085D
Orbit
LEO
Country
Flag of CISCIS
Related business
Manufacturer
Unknown
Mission
Spacecraft
Bus & Motor
Unknown
Mass
Unknown
Launch date (UTC)
1994-12-26 (31 years ago)
Launch vehicle
Unknown
Launch site
Tyuratam Missile And Space Complex (TTMTR)
Object type
Payload
Rocket body
Debris
Shape & HBR
Unknown
Radar Cross Section
Medium (>0.1 m² and <1 m²)

Expand to show TLE details & history
Last TLE update: 14 hours ago

TLE from 14 hours ago
0 SL-19 DEB
1 23480U 94085D   25260.99665553 -.00000042  00000-0  77276-4 0  9996
2 23480  64.6991 223.3398 0231160 191.5389 237.4784 11.46010159546135
Epoch: 2025-09-17T23:55Z
TLE epoch observation values (Epoch: 2025-09-17T23:55:11.037Z)
Latitude
56.31537°
Longitude
-87.71339°
Altitude
2,046.823 km
Speed
6.841 km/s
True Right ascension
17h 52m 59s
True Declination
56° 10' 51"
Sunlit
Object was in daylight at epoch
Visualization orbit readout
Latitude
Unknown
Longitude
Unknown
Altitude
Unknown
Speed
Unknown
Apparent Right ascension
Unknown
Apparent Declination
Unknown
Sunlit
N/A
Visualization observer readout
Local Sidereal Time
06:15:52
Azimuth
Unknown
Elevation
Unknown
Doppler factor
Unknown
Orbital elements
Apogee altitude
2,122.902 km
Perigee altitude
1,738.762 km
Semi-major axis
8,308.969 km
Eccentricity
0.02312
Inclination
64.6991°
RAAN
223.3398°
Arg. of periapsis
191.5389°
True anomaly
235.2796°
Mean anomaly
237.4784°
Eccentric anomaly
236.37555°
Mean motion
2.86565 °/min
Orbital period
125.63 mins
BSTAR
0.000077276
Loading maneuver chart data...
Computing Atmospheric mass density...
Loading historical data...
Loading historical data...
Loading historical data...
Loading historical data...
Loading historical data...
Loading historical data...
Loading historical data...

Documentation

Showing up to 5 results
|